Location: Melbourne
(37.8170°S, 144.9670°E)
Time: 21:55:11
(UTC+10:00)

Explorer 11/Cluster Stage 4 - Visible Passes

Search period start: 25 July 2016 00:00
Search period end: 04 August 2016 00:00
Orbit: 467 x 1265 km, 28.8° (Epoch: 24 July)

Date Brightness Start Highest point End Pass type
(mag) Time Alt. Az. Time Alt. Az. Time Alt. Az.
25 Jul 8.3 18:28:52 10° WNW 18:36:06 39° N 18:42:19 10° ENE visible
25 Jul 8.7 20:19:05 10° WNW 20:24:22 22° NNW 20:24:55 22° NNW visible
26 Jul 8.5 18:18:55 10° WNW 18:26:13 38° NNW 18:32:36 10° NE visible
26 Jul 8.8 20:09:19 10° WNW 20:14:29 20° NNW 20:16:13 19° N visible
27 Jul 8.6 18:08:59 10° WNW 18:16:20 37° NNW 18:22:50 10° NE visible
27 Jul 9.0 19:59:35 10° WNW 20:04:33 19° NNW 20:07:37 14° N visible
28 Jul 8.8 17:59:05 10° WNW 18:06:24 36° NNW 18:13:00 10° NE visible
28 Jul 9.3 19:49:57 10° WNW 19:54:38 17° NNW 19:58:54 10° N visible
29 Jul 9.0 17:49:14 10° WNW 17:56:28 34° NNW 18:03:07 10° NE visible
29 Jul 9.4 19:40:25 10° WNW 19:44:41 16° NNW 19:48:38 10° N visible
30 Jul 9.6 19:31:03 10° WNW 19:34:43 14° NNW 19:38:11 10° N visible
31 Jul 9.8 19:21:58 10° NW 19:24:44 12° NNW 19:27:25 10° NNW visible
01 Aug 10.1 19:13:52 10° NW 19:14:45 10° NW 19:15:38 10° NNW visible
